Regional Weather Roundup
Issued by NWS

Home | Current Version | Previous Version | Graphics & Text | Print | Product List | Glossary On
Versions: 1 2 3 4 5 6 7 8 9 10 11 12 13 14 15 16 17 18 19 20 21 22 23 24 25 26 27
000
ASUS45 KTFX 260610
RWRMT
MONTANA REGIONAL WEATHER ROUNDUP
NATIONAL WEATHER SERVICE GREAT FALLS MT
1200 AM MDT WED APR 26 2017

NOTE: "FAIR" INDICATES FEW OR NO CLOUDS BELOW 12000 FEET WITH NO
SIGNIFICANT WEATHER AND/OR OBSTRUCTIONS TO VISIBILITY.

MTZ001>007-043-260700-
WEST OF THE DIVIDE

CITY           SKY/WX    TMP DP  RH WIND       PRES   REMARKS
KALISPELL      LGT RAIN  41  40  96 CALM      29.80F
MISSOULA       CLOUDY    44  37  76 CALM      29.83F
BUTTE          CLOUDY    37  31  78 SE3       29.81F
MULLAN PASS    MOCLDY    31  30  96 VRB6      29.79F WCI  25
ANACONDA         N/A     39  28  65 CALM      29.82S
DEER LODGE       N/A     37  30  75 NW6       29.84S
EUREKA           N/A     45  37  76 SE9       29.78S
HAMILTON         N/A     46  32  57 S6        29.83S
PLAINS           N/A     41  34  76 MISG      29.83
RONAN            N/A     41  37  85 CALM      29.86F
$$

MTZ008-052>055-260700-
SOUTHWEST MONTANA

CITY           SKY/WX    TMP DP  RH WIND       PRES   REMARKS
BOZEMAN        CLOUDY    41  36  82 W3        29.81R
DILLON         CLOUDY    41  34  76 S3        29.80F
W YELLOWSTONE  MIX PCPN  32  32 100 SW12      29.84F WCI  23
THREE FORKS      N/A     44  20  38 N7        29.82S
$$

MTZ009-010-012-014-046-048-049-054-260700-
EAST SLOPES AND CENTRAL MONTANA

CITY           SKY/WX    TMP DP  RH WIND       PRES   REMARKS
CUT BANK       LGT SNOW  34  32  92 NE7       29.82F FOG     WCI  28
GREAT FALLS    CLOUDY    38  36  92 W6        29.83F
MALMSTROM AFB  CLOUDY    40  39  97 W8        29.84F
HELENA         CLEAR     38  34  85 W6        29.82F
AUGUSTA        CLOUDY    35  35 100 NW3       29.81F
BOWMANS CRNR   CLOUDY    35  34  97 S6        29.80F WCI  30
CHOTEAU          N/A     37  37 100 CALM      29.84F
FAIRFIELD      LGT RAIN  38  36  92 E3        29.81F
POWER          CLOUDY    38  37  96 W3        29.82F
RAYNESFORD     LGT RAIN  38  35  87 S8        29.82F
ULM              N/A     34  34  98 SE3       29.83F
$$

MTZ011-013-016-021-045-047-050-051-260700-
NORTH CENTRAL MONTANA

CITY           SKY/WX    TMP DP  RH WIND       PRES   REMARKS
HAVRE          CLOUDY    39  36  89 CALM      29.85F
LEWISTOWN      LGT SNOW  32  32 100 SE3       29.83F FOG
N BAR RANCH    SNOW      30  30 100 E8        29.86F VSB 1/2 WCI  23
CHINOOK          N/A     37  32  81 E15G22    29.86F WCI  28
DENTON         LGT RAIN  34  33  98 E8G20     29.80F WCI  27
FORT BENTON      N/A     39  36  87 MISG      29.85F
GEYSER         MOCLDY    33  33  97 CALM      29.82F
GRASS RANGE    LGT SNOW  32  32  99 E9        29.82S VSB 3/4 WCI  24
JUDITH GAP     CLOUDY    34  32  94 S9        29.83S WCI  27
STANFORD       FOG       32  32 100 CALM      29.82F VSB 1/2
WINIFRED       LGT SNOW  32  32  99 E7        29.83F WCI  26
$$

MTZ017>020-022>027-061-062-260700-
NORTHEAST MONTANA

CITY           SKY/WX    TMP DP  RH WIND       PRES   REMARKS
GLASGOW        CLOUDY    37  23  56 E14       29.93S WCI  28
JORDAN           N/A     37  28  70 S12       29.91S WCI  29
SIDNEY         CLOUDY    35  26  69 N5        29.97F
WOLF POINT     CLOUDY    37  25  61 E6        29.97F
MALTA          CLOUDY    36  27  69 E6        29.92S WCI  31
PLENTYWOOD       N/A     30  25  80 NE3       29.98F
POPLAR           N/A     32  23  69 E7        29.97F WCI  26
SCOBEY           N/A     34  20  57 E7        29.94F WCI  28
$$

MTZ028>42-056>058-260700-
SOUTHCENTRAL AND SOUTHEAST MONTANA

CITY           SKY/WX    TMP DP  RH WIND       PRES   REMARKS
BAKER          CLOUDY    29  24  82 CALM      29.93F
BILLINGS       CLOUDY    35  29  78 E10       29.86F WCI  27
LIVINGSTON     MOCLDY    37  36  96 E9        29.81S WCI  30
MILES CITY     CLOUDY    36  25  64 SE7       29.93F WCI  30
BIG TIMBER     CLOUDY    34  34 100 E7        29.85S FOG     WCI  28
EKALAKA          N/A     28  22  78 E6        29.89  WCI  22
LAUREL           N/A     35  24  64 NE6       29.85F WCI  30
ROUNDUP          N/A     36  26  67 SE8       29.79F WCI  30
$$

REGIONAL REPORTS...DAKOTAS

CITY           SKY/WX    TMP DP  RH WIND       PRES   REMARKS
WILLISTON      CLOUDY    34  25  69 NE7       29.99S WCI  28
MINOT          PTCLDY    32  24  72 N13       29.97S WCI  22
DICKINSON      CLOUDY    31  25  78 N5        29.90F
BEACH          CLOUDY    27  25  93 CALM      29.97F
TIOGA            N/A     27  27 100 NE7       29.99S WCI  19
WATFORD CITY     N/A     30  23  74 CALM      29.97R
BISMARCK       CLOUDY    37  26  64 N9        29.91F WCI  30
GRAND FORKS    CLOUDY    33  27  78 NE20      29.87F WCI  21
FARGO          LGT RAIN  33  28  81 N16G28    29.78F WCI  23
BUFFALO SD       N/A     30  25  81 NW8       29.85F WCI  22
RAPID CITY     CLOUDY    28  25  88 NW15      29.90F WCI  16
$$

REGIONAL REPORTS...WYOMING/IDAHO/WASHINGTON

CITY           SKY/WX    TMP DP  RH WIND       PRES   REMARKS
GILLETTE       CLOUDY    27  27 100 W3        29.89F
SHERIDAN       CLOUDY    32  29  88 SE3       29.87F
CODY           PTCLDY    35  32  88 SE7       29.84F WCI  29
YELLOWSTONE LA   N/A     29  26  89 VRB3      29.87F
IDAHO FALLS    PTCLDY    42  31  64 S14       29.85F
SALMON         PTCLDY    41  34  75 SW3       29.83F
BOISE          CLOUDY    50  35  56 W9        29.92R
SPOKANE        MOCLDY    46  33  60 SW10      29.79F
$$

REGIONAL REPORTS...ALBERTA

CITY           SKY/WX    TMP DP  RH WIND       PRES   REMARKS
EDMONTON       CLOUDY    32  27  80 SE13      29.90F WCI  22
CALGARY        MOCLDY    28  25  86 VRB2      29.83F
LETHBRIDGE     MOCLDY    34  32  93 S7        29.84F WCI  28
MEDICINE HAT   MOCLDY    37  37 100 NE3       29.85F
MILK RIVER       N/A     34  34 100 N3          N/A
ONEFOUR          N/A     36  32  87 E7          N/A  WCI  30
$$

REGIONAL REPORTS...SASKATCHEWAN

CITY           SKY/WX    TMP DP  RH WIND       PRES   REMARKS
SWIFT CURRENT  CLOUDY    32  27  80 SE13      29.91S WCI  22
REGINA         MOCLDY    32  23  69 E13       30.01F WCI  22
SASKATOON      CLOUDY    34  21  60 E8        30.04F WCI  27
CYPRESS HILLS    N/A     28  27  93 SE9         N/A  WCI  20
VAL MARIE        N/A     34  27  75 SE9         N/A  WCI  26
ASSINIBOIA       N/A     32  30  93 SE7         N/A  WCI  26
$$




USA.gov is the U.S. government's official web portal to all federal, state and local government web resources and services.